This is the latest recevied weather packets stored in our database for station/object KR0L-13. If no packets are shown the sender has not sent any weather packets the latest 10 day(s).
| Time | Temp. | Humidity | Pressure | Rain* | Wind** | Luminosity | Snow |
|---|---|---|---|---|---|---|---|
| 1777963821 | 13.89° C | 71% | 1005.2 hPa | 0 mm | - | - | - |
| 1777963221 | 13.89° C | 74% | 1005 hPa | 0 mm | - | - | - |
| 1777962621 | 13.89° C | 75% | 1004.4 hPa | 0 mm | - | - | - |
| 1777962022 | 13.89° C | 77% | 1004.1 hPa | 0 mm | - | - | - |
| 1777961421 | 13.89° C | 79% | 1004.2 hPa | 0 mm | - | - | - |
| 1777960821 | 14.44° C | 80% | 1004 hPa | 0 mm | - | - | - |
| 1777960221 | 14.44° C | 81% | 1003.7 hPa | 0 mm | - | - | - |
| 1777959621 | 14.44° C | 80% | 1003.9 hPa | 0 mm | - | - | - |
| 1777959021 | 15° C | 79% | 1004.1 hPa | 0 mm | - | - | - |
| 1777958421 | 15° C | 77% | 1004 hPa | 0 mm | - | - | - |
| 1777957821 | 16.11° C | 74% | 1003.9 hPa | 0 mm | - | - | - |
| 1777957221 | 16.11° C | 71% | 1003.3 hPa | 0 mm | - | - | - |
| 1777956622 | 16.67° C | 69% | 1003 hPa | 0 mm | - | - | - |
| 1777956021 | 17.78° C | 62% | 1003.3 hPa | 0 mm | - | - | - |
| 1777955421 | 20° C | 57% | 1003.7 hPa | 0 mm | - | - | - |
| 1777954821 | 21.67° C | 70% | 1003.9 hPa | 0 mm | - | - | - |
| 1777954221 | 21.67° C | 68% | 1003.6 hPa | 0 mm | - | - | - |
| 1777953621 | 21.67° C | 67% | 1003.3 hPa | 0 mm | - | - | - |
| 1777953021 | 22.22° C | 66% | 1003.4 hPa | 0 mm | - | - | - |
| 1777952421 | 22.78° C | 62% | 1003 hPa | 0 mm | - | - | - |
| 1777951821 | 22.22° C | 63% | 1003.2 hPa | 0 mm | - | - | - |
| 1777951221 | 22.22° C | 62% | 1002.7 hPa | 0 mm | - | - | - |
| 1777950621 | 22.22° C | 60% | 1002.5 hPa | 0 mm | - | - | - |
| 1777950021 | 22.22° C | 60% | 1002.4 hPa | 0 mm | - | - | - |
| 1777949421 | 22.78° C | 59% | 1002.7 hPa | 0 mm | - | - | - |
* Rain latest hour (hover to see other rain measurements)
** Current wind speed in m/s (hover to see current wind gust speed)